DateTimeUTC,F1_A11,F1_S11,BsB_S11,BsG_S11,BsR_S11,BbsB_S11,BbsG_S11,BbsR_S11,BaB_A11,BaG_A11,BaR_A11,Tu_S11,T_S11,Uu_S11,U_S11,P_S11,T1_A11
2021-08-17T02:00:00Z,00000200,20000000,,,,,,,0000.40,0000.13,0000.17,18.4,25.1,09.2,06.1,0674.5,30.9
2021-08-17T02:01:00Z,00000200,20000000,,,,,,,-000.01,0000.10,0000.05,18.4,25.1,09.2,06.1,0674.5,30.9
2021-08-17T02:02:00Z,00000200,20000000,,,,,,,-000.48,-000.38,-000.37,18.4,25.1,09.2,06.1,0674.5,30.9
2021-08-17T02:03:00Z,00000200,60000000,,,,,,,0000.35,-000.02,0000.35,18.4,25.1,09.2,06.1,0674.5,30.9
2021-08-17T02:04:00Z,00000200,40000000,0001.24,0001.45,0000.67,0000.01,0000.07,-000.33,0000.49,0000.45,0000.15,18.5,24.9,09.4,06.4,0675.4,30.9
2021-08-17T02:05:00Z,00000200,00000000,0001.24,0001.23,0001.19,0000.18,0000.30,0000.29,0000.23,0000.26,0000.33,18.6,24.9,09.3,06.3,0675.5,30.9
2021-08-17T02:06:00Z,00000200,00000000,0001.69,0001.20,0000.80,0000.08,0000.11,0000.10,0000.28,0000.18,0000.26,18.6,24.9,09.3,06.4,0675.5,30.9
2021-08-17T02:07:00Z,00000200,00000000,0001.51,0000.92,0000.86,0000.78,0000.02,0000.27,0000.42,0000.75,0000.53,18.6,24.8,09.4,06.4,0675.5,30.9
2021-08-17T02:08:00Z,00000200,00000000,0001.53,0001.59,0000.85,0000.64,0000.41,-000.05,0000.28,0000.43,-000.03,18.6,24.8,09.3,06.3,0675.5,30.9
2021-08-17T02:09:00Z,00000200,00000000,0002.00,0001.27,0000.77,0000.23,0000.45,-000.05,0000.45,-000.06,0000.33,18.6,24.8,09.4,06.4,0675.5,30.9
2021-08-17T02:10:00Z,00000200,00000000,0001.53,0001.39,0000.91,0000.40,0000.63,-000.13,0000.57,0000.85,0000.35,18.6,24.8,09.3,06.4,0675.5,30.9
2021-08-17T02:11:00Z,00000200,00000000,0000.85,0001.52,0001.19,-000.36,0000.42,0000.08,0000.23,0000.57,0000.41,18.6,24.8,09.4,06.4,0675.5,30.9
2021-08-17T02:12:00Z,00000200,00000000,0001.06,0001.27,0001.16,0000.06,0000.12,0000.37,0000.54,0000.04,0000.23,18.7,24.8,09.3,06.4,0675.5,30.9
2021-08-17T02:13:00Z,00000200,00000000,0001.56,0001.59,0001.05,0000.19,0000.26,-000.01,0000.16,0000.16,0000.17,18.7,24.9,09.4,06.5,0675.5,30.9
2021-08-17T02:14:00Z,00000200,00000000,0001.78,0001.10,0000.76,0000.18,0000.29,0000.07,0000.62,0000.50,0000.56,18.8,24.9,09.3,06.4,0675.5,30.9
2021-08-17T02:15:00Z,00000200,00000000,0001.61,0001.20,0000.99,0000.07,0000.52,-000.07,0000.37,0000.30,-000.19,18.8,24.9,09.3,06.4,0675.6,30.9
2021-08-17T02:16:00Z,00000200,00000000,0001.41,0001.48,0001.12,0000.11,0000.22,0000.19,-000.12,0000.14,0000.24,18.8,24.9,09.4,06.5,0675.6,30.9
2021-08-17T02:17:00Z,00000200,00000000,0001.72,0001.19,0000.70,-000.05,0000.32,-000.14,0000.39,0000.42,0000.26,18.8,24.9,09.3,06.4,0675.6,30.9
2021-08-17T02:18:00Z,00000200,00000000,0002.18,0001.23,0001.09,0000.33,0000.44,-000.03,-000.13,0000.19,-000.02,18.8,24.9,09.2,06.3,0675.6,30.9
2021-08-17T02:19:00Z,00000200,00000000,0002.02,0001.11,0000.59,0000.00,0000.08,0000.07,0000.50,0000.01,0000.22,18.8,24.9,09.4,06.4,0675.6,30.9
2021-08-17T02:20:00Z,00000200,00000000,0002.01,0001.11,0000.91,0000.14,-000.19,-000.19,0000.33,0000.03,0000.43,18.7,24.9,09.3,06.4,0675.6,30.9
2021-08-17T02:21:00Z,00000200,00000000,0001.74,0001.47,0001.02,0001.01,0000.26,0000.04,0000.55,0000.73,0000.17,18.7,24.9,09.4,06.4,0675.6,30.9
2021-08-17T02:22:00Z,00000200,00000000,0001.71,0001.41,0001.24,0000.68,0000.33,-000.15,0000.30,0000.07,0000.43,18.7,24.9,09.4,06.4,0675.6,30.9
2021-08-17T02:23:00Z,00000200,00000000,0001.58,0001.34,0000.92,0000.33,0000.29,0000.16,0000.38,0000.75,0000.31,18.7,24.9,09.4,06.4,0675.6,30.9
2021-08-17T02:24:00Z,00000200,00000000,0002.34,0001.87,0001.02,0000.11,0000.44,0000.21,0000.75,-000.09,0000.13,18.7,24.9,09.3,06.4,0675.6,30.9
2021-08-17T02:25:00Z,00000200,00000000,0001.05,0001.76,0001.03,-000.31,0000.17,0000.07,0000.08,0000.99,0000.40,18.7,24.9,09.3,06.4,0675.6,30.9
2021-08-17T02:26:00Z,00000200,00000000,0001.97,0001.52,0001.22,0000.66,0000.19,0000.30,0000.42,0000.29,0000.18,18.7,24.8,09.4,06.4,0675.6,30.9
2021-08-17T02:27:00Z,00000200,00000000,0001.12,0001.35,0000.93,-000.26,0000.35,-000.03,0000.34,0000.22,0000.31,18.7,24.9,09.3,06.4,0675.6,30.9
2021-08-17T02:28:00Z,00000200,00000000,0002.29,0001.97,0001.45,0000.23,0000.11,0000.14,0000.06,0000.22,0000.23,18.8,24.9,09.2,06.3,0675.6,30.9
2021-08-17T02:29:00Z,00000200,00000000,0002.12,0001.86,0001.32,0000.38,0000.22,0000.34,0000.97,0000.59,0000.61,18.8,24.9,09.2,06.4,0675.6,30.9
2021-08-17T02:30:00Z,00000200,00000000,0001.75,0001.95,0001.26,0000.88,0000.61,0000.09,0000.14,0000.38,0000.30,18.8,24.9,09.3,06.4,0675.5,30.9
2021-08-17T02:31:00Z,00000200,00000000,0002.41,0001.70,0001.05,-000.24,0000.24,-000.04,0000.72,0000.39,0000.47,18.8,24.9,09.3,06.4,0675.6,30.9
2021-08-17T02:32:00Z,00000200,00000000,0001.26,0001.57,0000.78,0000.09,0000.23,-000.22,0000.34,0000.48,0000.20,18.8,24.9,09.2,06.4,0675.6,30.9
2021-08-17T02:33:00Z,00000200,00000000,0001.60,0001.47,0001.39,0000.38,0000.15,0000.39,0000.66,0000.39,0000.36,18.8,24.9,09.3,06.4,0675.6,30.9
2021-08-17T02:34:00Z,00000200,00000000,0001.96,0001.56,0001.28,0000.33,0000.41,0000.45,0000.29,0000.52,0000.37,18.8,24.9,09.3,06.4,0675.6,30.9
2021-08-17T02:35:00Z,00000200,00000000,0002.70,0001.53,0001.23,0000.02,0000.59,0000.37,0000.66,0000.21,0000.29,18.8,24.9,09.3,06.4,0675.6,30.9
2021-08-17T02:36:00Z,00000200,00000000,0001.89,0001.68,0001.15,0000.51,0000.50,-000.06,0000.34,0000.93,0000.45,18.8,24.9,09.3,06.4,0675.6,30.9
2021-08-17T02:37:00Z,00000200,00000000,0001.77,0002.03,0001.32,0000.11,0000.38,-000.08,0000.82,0000.36,0000.11,18.7,24.8,09.3,06.4,0675.6,30.9
2021-08-17T02:38:00Z,00000200,00000000,0003.61,0001.99,0001.45,0000.45,0000.30,0000.18,0000.35,0000.42,0000.40,18.7,24.8,09.2,06.3,0675.6,30.9
2021-08-17T02:39:00Z,00000200,00000000,0002.97,0002.04,0001.30,0000.68,0000.20,-000.24,0000.68,0000.51,0000.65,18.7,24.8,09.3,06.4,0675.6,30.9
2021-08-17T02:40:00Z,00000200,00000000,0002.35,0002.02,0001.58,0000.25,0000.38,0000.19,0000.41,0000.60,0000.64,18.7,24.8,09.2,06.3,0675.6,30.9
2021-08-17T02:41:00Z,00000200,00000000,0002.04,0001.71,0001.29,0000.51,0000.39,0000.14,0000.68,0000.45,0000.68,18.7,24.8,09.3,06.4,0675.6,30.9
2021-08-17T02:42:00Z,00000200,00000000,0001.72,0001.59,0001.16,0000.45,0000.23,-000.01,0000.25,0000.48,-000.09,18.8,24.8,09.3,06.4,0675.7,30.9
2021-08-17T02:43:00Z,00000200,00000000,0002.44,0001.62,0001.23,0000.33,0000.57,0000.26,0000.70,0000.14,-000.00,18.9,24.9,09.2,06.4,0675.7,30.9
2021-08-17T02:44:00Z,00000200,00000000,0002.21,0001.59,0001.31,0000.32,0000.41,0000.09,0000.36,0000.47,0000.54,18.9,24.9,09.2,06.4,0675.7,30.9
2021-08-17T02:45:00Z,00000200,00000000,0002.16,0001.39,0001.32,0000.38,0000.44,0000.06,0000.45,0000.48,0000.30,18.9,25.0,09.2,06.4,0675.7,30.9
2021-08-17T02:46:00Z,00000200,00000000,0001.81,0001.69,0001.48,0000.26,0000.16,0000.26,0000.44,0000.54,0000.55,18.9,25.0,09.2,06.4,0675.7,30.9
2021-08-17T02:47:00Z,00000200,00000000,0002.66,0002.03,0001.37,0001.10,0000.24,0000.26,0000.53,0000.48,0000.16,18.9,25.0,09.2,06.4,0675.7,30.9
2021-08-17T02:48:00Z,00000200,00000000,0001.97,0001.77,0001.43,-000.22,0000.39,-000.01,0000.32,0000.07,0000.37,18.9,25.0,09.2,06.3,0675.7,30.9
2021-08-17T02:49:00Z,00000200,00000000,0002.21,0001.94,0001.60,0000.43,0000.45,-000.04,0000.30,0000.09,0000.28,18.9,24.9,09.3,06.4,0675.7,30.9
2021-08-17T02:50:00Z,00000200,00000000,0002.15,0001.85,0001.21,0000.98,0000.49,0000.08,0000.33,0001.05,0000.46,18.9,24.9,09.2,06.4,0675.7,30.9
2021-08-17T02:51:00Z,00000200,00000000,0002.08,0001.60,0001.26,0000.00,0000.30,0000.04,0000.98,0000.39,0000.46,18.8,24.9,09.2,06.3,0675.7,30.9
2021-08-17T02:52:00Z,00000200,00000000,0002.28,0001.86,0001.15,-000.39,0000.41,0000.31,0000.54,0000.58,0000.34,18.8,24.9,09.2,06.4,0675.7,30.9
2021-08-17T02:53:00Z,00000200,00000000,0002.17,0001.91,0001.38,0000.35,0000.33,0000.12,0000.41,0000.10,0000.59,18.8,24.9,09.3,06.4,0675.7,30.9
2021-08-17T02:54:00Z,00000200,00000000,0002.31,0001.99,0001.54,0000.30,0000.40,0000.04,0000.27,0000.86,0000.14,18.8,24.9,09.2,06.3,0675.7,30.9
2021-08-17T02:55:00Z,00000200,00000000,0002.63,0001.87,0001.44,0000.47,0000.33,-000.01,0000.88,0000.49,0000.40,18.8,24.9,09.2,06.4,0675.7,30.9
2021-08-17T02:56:00Z,00000200,00000000,0002.59,0001.86,0001.31,0000.76,0000.50,0000.18,0000.35,0000.11,0000.55,18.8,24.9,09.3,06.4,0675.7,30.9
2021-08-17T02:57:00Z,00000200,40000000,,,,,,,0000.01,0000.79,-000.10,18.8,24.9,09.1,06.3,0675.7,30.9
2021-08-17T02:58:00Z,00000200,60000000,,,,,,,0000.26,-000.35,0000.20,18.5,25.0,09.4,06.3,0674.7,30.9
2021-08-17T02:59:00Z,00000200,20000000,,,,,,,-000.12,-000.16,-000.22,18.5,25.1,09.2,06.1,0674.7,30.9
